"Pseudo-MPEC" for N00kyev

Created 2022 Dec 14 16:22:09 UT using Find_Orb

Click here for an explanation of pseudo-MPECs

 
 Astrometry: 
     N00kyev  S2022 11 29llVIAh5gL9(*dLlQB9UUtbulkar`2LSYr/(mRq[$1=.uCUM@n(uBC51
     N00kyev  s2022 11 29DJ561aPxg)W`m_-EWh#B`e=]@D#iS1KW;ikA)OxCB7QAHsDj3/bqC51
     N00kyev  S2022 11 29*,ts3'^^_9y(UDI8s!6;lg\o:Z_ND!yN.MGAU+Y:D2BSVElPF\ElC51
     N00kyev  s2022 11 29#\a=p!E:Dh0r5+'uAsP=Mabs7bU6.XLpOCqu]Ms8kowrjmdF0k-LC51
     N00kyev  S2022 11 29dxhs5w+;GZ^rUvEO]tq[GQnAstrometryZwYK++i)NKG4r'rj7niC51
     N00kyev  s2022 11 29@JMnvb;89dL6CQAN@K6C']1S*w/RA)WnxS0mEIWq9H[)B`_X]gooC51
     N00kyev  S2022 11 30tgSLw_m;$oKL:N)eg^3redacted;gUL3Tm\#BJVnGo;'2V`[[2P/C51
     N00kyev  s2022 11 30o;vSOS@*oGrI:.\X\*Y,EaUGS63)y(EP\N)V2R#^rm\.Ks9+%8lwC51
     N00kyev  S2022 11 30nmP^Z^bY4D-qUsI2X%*Kb9v[,[`xM]lt3+GCcZ1aA(p;Q)sW3DstC51
     N00kyev  s2022 11 30TfVne]Q1XX@click9uJ]BR-7*60;$.4^(BK^66Bg!T_rfY1bZ\yVC51
     N00kyev  S2022 11 304,mrCWg!e!_mC0,Y(V\:NHs_d-ucc0J0\GAJH,K-TIr`\LB]($QVC51
     N00kyev  s2022 11 30JpkXk.uUX`8%''4A5Bja('3Jd(oLb?B-Qh'CNg5.HQ56sJX=e:DyC51
     N00kyev  S2022 11 30boFWAcQp(`f/];Ps#y$85Q=Ho(b9''VP'3Ljj;G*'0gv;:y:?8)pC51
     N00kyev  s2022 11 30U+e7nYsuiIVVuGu?vIC,k@G+?;J1yA@*`XxsQMbT*?*+nIGjMjvdC51
     N00kyev  S2022 11 30xI^mNolIjwcHO]SWyaarkFfomVB7-:V_=nRkcE:-vX/%ob\H$wAoC51
     N00kyev  s2022 11 30Cadjr`\%l`pc#o$1E6@K+]aSa_N0\6u'.5=g6/+.oUqrKO]pe$ApC51
     N00kyev  S2022 11 30a)$BR2XBa_*wq3ehereVAZ28-]hj--HO$c2\e.4xfW_a\(3IHiD(C51
     N00kyev  s2022 11 30U]il%42\)j;Le#;=iLWogmRqD;\SRFW:FDPOhPDopG0gj\D:IlF$C51
     N00kyev  S2022 11 30cF$\UWb!hV!fa*UkNJaO4)tJM4M?ZQ(ZSacYd`5fMPp\By`)(t2DC51
     N00kyev  s2022 11 30:jq3$#p^VWU?O4^5#$bTNxv'^Y0XFfV:WNM[QCtaO[)cs?@w[tKZC51
     N00kyev  S2022 11 30JS*=Q*)-D:5qv@op(Iy=S6r\3-18g[E`?b7IlDm,4?\T4,\7+SjGC51
     N00kyev  s2022 11 30i*J;okP:Qp#h?Igg/!,l/tRle^EV_iLCEP8:BiUM_2X[]ED8+jG%C51
     N00kyev  S2022 11 30Cmk[m!t\''XVBTyQ'^=wqR4vgN[duLyhfor'sJc7,uH(OGY0`vbWC51
     N00kyev  s2022 11 30(PM$WOE+e/7bIs\M\MY1ua`wtJ7JfHR=O1tYVYD@95(b.d6DlIUAC51
     N00kyev 0C2022 12 141o_t/d`WexplanationpW-'Qf^dd$$y,@bKV`=^keW*9fnTxe1+lT14
     N00kyev 0C2022 12 14=K*[5b_hoZPt67kp-O;L`FfMn@KY+050^$swlBWwpH4aAj4GQZ3$T14
     N00kyev 0C2022 12 14N-)bmmho\RS`%Q,!.)qV=XO8Ic`TwM2K[;gNbUCDbQ^g(jijt:!kT14

Station data:
(C51) WISE. Measurers A. Mainzer, E. Wright, J. Bauer, T. Grav, J. Dailey, J.
   Masiero, R. Cutri, R. McMillan, R. Walker.
(T14) Mauna Kea-UH/Tholen NEO Follow-Up (CFHT)  (N19.825252 W155.468876)
   US/Hawaii. 3.6-m Canada-France-Hawaii Telescope.

Orbital elements:  N00kyev
   Perihelion 2022 Nov 27.91886 +/- 0.0857 TT = 22:03:09 (JD 2459911.41886)
Epoch 2022 Dec 14.0 TT = JDT 2459927.5   Earth MOID: 0.1517      AutoNEOCP
M   3.90798417 +/- 0.27             (J2000 ecliptic)
n   0.24301656 +/- 0.0186           Peri.  358.86374 +/- 0.08
a   2.54318991 +/- 0.13             Node    52.49336 +/- 0.23
e   0.5513619 +/- 0.0214            Incl.   28.81095 +/- 0.44
P   4.06                   H 22.24  G  0.15   U 10.1
q 1.14097185 +/- 0.00358    Q 3.94540797 +/- 0.256
From 15 observations 2022 Nov. 29-Dec. 14; mean residual 0".70
Residuals in arcseconds: 
221129 C51  .24-  .34-    221130 C51  .38-  .81+    221130 C51  .21-  .96+    
221129 C51  .45+  .72-    221130 C51  1.9+  .17+    221130 C51  1.6-  1.2-    
221129 C51  .93-  .02-    221130 C51  .47+  1.3+    221214 T14  .02-  .05-    
221130 C51  .28+  .44+    221130 C51  .32+  .58-    221214 T14  .02+  .04+    
221130 C51  .52-  .11-    221130 C51  .49+  .67-    221214 T14  .01-  .01+    

Ephemerides (geocentric):
Date (UTC) HH   RA             Dec           delta  r     elong  mag " sig PA
---- --------  ------------   ------------  ------ ------ -----  --- --------
2022 12 14 16  00 06 39.194   +26 46 21.76  .37178 1.1583 108.7 22.4 .866  60
2022 12 14 17  00 06 41.449   +26 49 48.03  .37205 1.1584 108.7 22.4 .907  60
2022 12 14 18  00 06 43.710   +26 53 14.03  .37232 1.1585 108.7 22.4 .948  60
2022 12 14 19  00 06 45.978   +26 56 39.76  .37259 1.1586 108.6 22.4 .990  60
2022 12 14 20  00 06 48.252   +27 00 05.23  .37286 1.1587 108.6 22.4 1.03  59
2022 12 14 21  00 06 50.533   +27 03 30.42  .37313 1.1588 108.6 22.4 1.07  59
2022 12 14 22  00 06 52.821   +27 06 55.35  .37340 1.1588 108.6 22.4 1.12  59
2022 12 14 23  00 06 55.115   +27 10 20.01  .37367 1.1589 108.6 22.4 1.16  59
2022 12 15 00  00 06 57.416   +27 13 44.40  .37394 1.1590 108.6 22.4 1.20  58
2022 12 15 01  00 06 59.724   +27 17 08.52  .37421 1.1591 108.6 22.4 1.25  58
2022 12 15 02  00 07 02.038   +27 20 32.38  .37448 1.1592 108.6 22.4 1.29  58
2022 12 15 03  00 07 04.359   +27 23 55.97  .37476 1.1593 108.5 22.4 1.33  58
2022 12 15 04  00 07 06.687   +27 27 19.29  .37503 1.1594 108.5 22.4 1.38  58
2022 12 15 05  00 07 09.021   +27 30 42.34  .37530 1.1595 108.5 22.4 1.42  58
2022 12 15 06  00 07 11.362   +27 34 05.13  .37557 1.1595 108.5 22.4 1.47  57
2022 12 15 07  00 07 13.710   +27 37 27.65  .37585 1.1596 108.5 22.4 1.51  57
2022 12 15 08  00 07 16.064   +27 40 49.91  .37612 1.1597 108.5 22.4 1.56  57
2022 12 15 09  00 07 18.425   +27 44 11.90  .37639 1.1598 108.5 22.5 1.60  57
2022 12 15 10  00 07 20.793   +27 47 33.63  .37667 1.1599 108.4 22.5 1.65  57
2022 12 15 11  00 07 23.167   +27 50 55.09  .37694 1.1600 108.4 22.5 1.69  57
2022 12 15 12  00 07 25.548   +27 54 16.28  .37721 1.1601 108.4 22.5 1.74  57
2022 12 15 13  00 07 27.936   +27 57 37.21  .37749 1.1602 108.4 22.5 1.79  56
2022 12 15 14  00 07 30.330   +28 00 57.88  .37776 1.1603 108.4 22.5 1.83  56
2022 12 15 15  00 07 32.732   +28 04 18.28  .37804 1.1603 108.4 22.5 1.88  56
2022 12 15 16  00 07 35.139   +28 07 38.42  .37832 1.1604 108.4 22.5 1.93  56
2022 12 15 17  00 07 37.554   +28 10 58.29  .37859 1.1605 108.4 22.5 1.97  56
2022 12 15 18  00 07 39.975   +28 14 17.91  .37887 1.1606 108.3 22.5 2.02  56
2022 12 15 19  00 07 42.403   +28 17 37.25  .37914 1.1607 108.3 22.5 2.07  56
2022 12 15 20  00 07 44.837   +28 20 56.34  .37942 1.1608 108.3 22.5 2.12  56
2022 12 15 21  00 07 47.279   +28 24 15.16  .37970 1.1609 108.3 22.5 2.17  56
2022 12 15 22  00 07 49.727   +28 27 33.72  .37998 1.1610 108.3 22.5 2.22  56
2022 12 15 23  00 07 52.181   +28 30 52.01  .38025 1.1611 108.3 22.5 2.26  55
2022 12 16 00  00 07 54.642   +28 34 10.05  .38053 1.1612 108.3 22.5 2.31  55
2022 12 16 01  00 07 57.110   +28 37 27.82  .38081 1.1613 108.3 22.5 2.36  55
2022 12 16 02  00 07 59.585   +28 40 45.33  .38109 1.1614 108.2 22.5 2.41  55
2022 12 16 03  00 08 02.067   +28 44 02.58  .38137 1.1614 108.2 22.5 2.46  55
2022 12 16 04  00 08 04.555   +28 47 19.57  .38165 1.1615 108.2 22.5 2.51  55
2022 12 16 05  00 08 07.049   +28 50 36.30  .38193 1.1616 108.2 22.5 2.57  55
2022 12 16 06  00 08 09.551   +28 53 52.77  .38221 1.1617 108.2 22.5 2.62  55
2022 12 16 07  00 08 12.059   +28 57 08.98  .38249 1.1618 108.2 22.5 2.67  55
2022 12 16 08  00 08 14.574   +29 00 24.92  .38277 1.1619 108.2 22.5 2.72  55
2022 12 16 09  00 08 17.096   +29 03 40.61  .38305 1.1620 108.1 22.5 2.77  55
2022 12 16 10  00 08 19.624   +29 06 56.04  .38333 1.1621 108.1 22.5 2.82  54
2022 12 16 11  00 08 22.159   +29 10 11.21  .38361 1.1622 108.1 22.5 2.88  54
2022 12 16 12  00 08 24.701   +29 13 26.12  .38389 1.1623 108.1 22.5 2.93  54
2022 12 16 13  00 08 27.249   +29 16 40.77  .38418 1.1624 108.1 22.5 2.98  54
2022 12 16 14  00 08 29.804   +29 19 55.16  .38446 1.1625 108.1 22.5 3.03  54
2022 12 16 15  00 08 32.366   +29 23 09.30  .38474 1.1626 108.1 22.5 3.09  54